KB3KAV Weather Reports


Display with metric or nautical units.
time (UTC)temp
F
wind
direction
speed
MPH
gust
MPH
rain 1hr
in
rain 24hr
in
rain mn
in
humidity
%
barometer
mb
20260503220317 59 280 3.0 3.0 0.00 0.00 0.00 34 1040.0
20260503215317 58 296 6.0 7.0 0.00 0.00 0.00 33 1040.0
20260503214312 58 281 6.0 7.0 0.00 0.00 0.00 34 1039.8
20260503213307 60 301 5.0 7.0 0.00 0.00 0.00 32 1039.9
20260503212301 59 244 3.0 3.0 0.00 0.00 0.00 33 1039.7
20260503211301 59 280 6.0 7.0 0.00 0.00 0.00 32 1039.9
20260503210259 59 293 7.0 10.0 0.00 0.00 0.00 33 1039.9
20260503205256 58 244 7.0 8.0 0.00 0.00 0.00 33 1039.7
20260503204257 59 227 3.0 5.0 0.00 0.00 0.00 31 1039.5
20260503203251 59 49 3.0 3.0 0.00 0.00 0.00 30 1039.7
20260503202246 58 282 4.0 5.0 0.00 0.00 0.00 31 1039.5
20260503201241 57 278 5.0 6.0 0.00 0.00 0.00 31 1039.7
20260503200239 57 269 10.0 11.0 0.00 0.00 0.00 30 1040.0
20260503195239 58 335 4.0 6.0 0.00 0.00 0.00 30 1040.0
20260503194238 57 287 11.0 14.0 0.00 0.00 0.00 29 1040.1
20260503193237 57 267 12.0 16.0 0.00 0.00 0.00 30 1040.3
20260503192234 57 295 5.0 6.0 0.00 0.00 0.00 33 1040.2
20260503191228 57 132 4.0 5.0 0.00 0.00 0.00 30 1040.5
20260503190227 56 100 1.0 2.0 0.00 0.00 0.00 30 1040.5
20260503185226 57 289 10.0 13.0 0.00 0.00 0.00 29 1040.7
20260503184223 57 295 7.0 9.0 0.00 0.00 0.00 31 1040.9
20260503183223 55 322 5.0 5.0 0.00 0.00 0.00 33 1041.1
20260503182219 56 219 5.0 6.0 0.00 0.00 0.00 31 1041.0
20260503181218 54 275 4.0 5.0 0.00 0.00 0.00 32 1041.0
20260503180213 56 273 13.0 15.0 0.00 0.00 0.00 32 1041.1
20260503175213 54 284 5.0 8.0 0.00 0.00 0.00 32 1041.4
20260503174213 54 295 13.0 14.0 0.00 0.00 0.00 33 1041.5
20260503173209 53 307 5.0 6.0 0.00 0.00 0.00 35 1041.9
20260503172209 54 111 2.0 2.0 0.00 0.00 0.00 34 1041.7
20260503171208 52 14 1.0 2.0 0.00 0.00 0.00 38 1041.9
20260503170208 53 247 7.0 8.0 0.00 0.00 0.00 35 1042.1
20260503160159 50 277 4.0 6.0 0.00 0.00 0.00 36 1042.6
20260503150142 47 89 2.0 3.0 0.00 0.00 0.00 41 1042.8
20260503140135 48 127 6.0 7.0 0.00 0.00 0.00 37 1043.1
20260503131128 45 300 6.0 8.0 0.00 0.00 0.00 52 1043.4
20260503130123 45 288 7.0 9.0 0.00 0.00 0.00 54 1043.4
20260503120112 40 271 3.0 3.0 0.00 0.00 0.00 68 1043.4
20260503081024 40 62 1.0 2.0 0.00 0.00 0.00 69 1042.0
20260503072014 41 90 1.0 1.0 0.00 0.00 0.00 66 1041.7
20260503071014 41 86 1.0 1.0 0.00 0.00 0.00 67 1041.6
20260503054945 42 107 1.0 1.0 0.00 0.00 0.00 66 1041.8
20260503053945 42 43 2.0 2.0 0.00 0.00 0.00 65 1042.0
20260503052944 42 95 1.0 1.0 0.00 0.00 0.00 64 1042.1
20260503051944 42 92 1.0 1.0 0.00 0.00 0.00 65 1042.1
20260503050943 43 85 0.0 0.0 0.00 0.00 0.00 64 1042.2
20260503045943 43 100 1.0 2.0 0.00 0.00 0.00 62 1042.3
20260503044943 43 117 1.0 2.0 0.00 0.00 0.00 62 1042.3
20260503043937 43 102 0.0 0.0 0.00 0.00 0.00 62 1042.2
20260503042935 43 79 0.0 0.0 0.00 0.00 0.00 61 1042.2
20260503041934 44 88 1.0 1.0 0.00 0.00 0.00 61 1042.3
20260503040934 44 115 1.0 1.0 0.00 0.00 0.00 60 1042.5
20260503035929 44 351 3.0 3.0 0.00 0.12 0.12 59 1042.4
20260503034929 44 57 2.0 2.0 0.00 0.12 0.12 60 1042.5
20260503033929 44 94 0.0 1.0 0.00 0.12 0.12 61 1042.5
20260503032925 44 73 1.0 1.0 0.00 0.12 0.12 60 1042.4
20260503031920 44 81 1.0 1.0 0.00 0.12 0.12 60 1042.3
20260503030920 45 70 2.0 2.0 0.00 0.12 0.12 58 1042.6
20260503025919 45 49 2.0 2.0 0.00 0.12 0.12 59 1042.3
20260503024920 45 86 0.0 0.0 0.00 0.12 0.12 61 1042.3
20260503023919 45 106 0.0 0.0 0.00 0.12 0.12 62 1042.4
20260503022919 44 105 1.0 1.0 0.00 0.12 0.12 65 1042.5
20260503021915 44 96 0.0 0.0 0.00 0.12 0.12 69 1042.3
20260503020915 45 96 0.0 0.0 0.00 0.12 0.12 68 1042.5
20260503015915 45 96 0.0 0.0 0.00 0.12 0.12 64 1042.3
20260503014914 46 96 0.0 0.0 0.00 0.12 0.12 65 1042.2
20260503013909 46 95 0.0 0.0 0.00 0.12 0.12 61 1042.0
20260503012909 46 96 0.0 0.0 0.00 0.12 0.12 61 1042.0
20260503011909 46 85 0.0 0.0 0.00 0.12 0.12 61 1041.9
20260503010909 47 84 0.0 0.0 0.00 0.12 0.12 57 1042.1
20260503005908 47 88 1.0 1.0 0.00 0.12 0.12 54 1041.9
20260503004908 47 10 3.0 3.0 0.00 0.12 0.12 54 1041.8
20260503003903 47 64 2.0 2.0 0.00 0.12 0.12 54 1041.6
20260503002902 47 295 3.0 3.0 0.00 0.12 0.12 53 1041.6
20260503001902 48 318 3.0 3.0 0.00 0.12 0.12 53 1041.5
20260503000856 48 32 3.0 3.0 0.00 0.12 0.12 52 1041.6
20260502235856 48 97 0.0 0.0 0.00 0.12 0.12 52 1041.4
20260502234856 48 109 2.0 2.0 0.00 0.12 0.12 50 1041.2
20260502233855 49 130 2.0 2.0 0.00 0.12 0.12 50 1041.2
20260502232854 49 62 1.0 2.0 0.00 0.12 0.12 49 1041.4
20260502231853 50 142 2.0 2.0 0.00 0.12 0.12 47 1041.0
20260502230849 50 34 2.0 2.0 0.00 0.12 0.12 48 1040.9
20260502225849 50 64 2.0 2.0 0.00 0.12 0.12 45 1041.0
20260502224849 50 55 1.0 2.0 0.00 0.12 0.12 46 1041.0
20260502223849 50 85 1.0 1.0 0.00 0.12 0.12 45 1040.8
20260502222844 50 263 4.0 5.0 0.00 0.12 0.12 45 1040.9
20260502221843 51 61 3.0 3.0 0.00 0.12 0.12 43 1040.8
20260502220843 51 73 3.0 3.0 0.00 0.12 0.12 43 1040.6